This demonstration page uses our WeatherBlox Daily Observations layout. Learn more.

Left ArrowRight Arrow

39.92423, -83.80882

Hourly Observations for January 3, 2017

Temp ( °F °C ) Dew Point ( °F °C ) Humidity (%) Winds ( mph kmh ) Pressure ( in mb ) Visibility ( mi km ) Precip ( " mm )
12:05 am 00:05 Cloudy with Mist and Fog 52 11 52 11 100 100 SE 8 13 29.85 1011 4 6.43736 0 0
12:56 am 00:56 Cloudy with Mist and Fog 51 10.6 51 10.6 100 100 SE 8 13 29.84 1011 6 9.65604 0 0
1:51 am 01:51 Cloudy with Mist and Fog 52 11 52 11 100 100 ESE 5 7 29.83 1010 6 9.65604 0 0
1:56 am 01:56 Cloudy with Mist and Fog 51 10.6 51 10.6 100 100 ESE 5 7 29.83 1010 6 9.65604 0 0
2:27 am 02:27 Cloudy with Light Rain 52 11 50 10 94 94 SE 5 7 29.8 1009 5 8.0467 0.001 0.001
2:56 am 02:56 Cloudy with Light Rain 51 10.6 50 10 96 96 SE 5 7 29.81 1010 4 6.43736 0.01 0.254
3:19 am 03:19 Cloudy with Light Rain 52 11 52 11 100 100 SE 7 11 29.8 1009 5 8.0467 0.001 0.001
3:56 am 03:56 Cloudy with Light Rain 51 10.6 51 10.6 100 100 SSE 7 11 29.78 1009 5 8.0467 0.01 0.254
4:03 am 04:03 Cloudy with Light Rain 52 11 52 11 100 100 SSE 6 9 29.77 1008 5 8.0467 0.001 0.001
4:56 am 04:56 Cloudy with Rain 52 11.1 51 10.6 97 97 SSE 7 11 29.74 1007 4 6.43736 0.07 1.778
5:05 am 05:05 Cloudy with Rain 52 11 52 11 100 100 SSE 6 9 29.74 1007 4 6.43736 0.02 0.508
5:56 am 05:56 Cloudy with Rain 52 11.1 51 10.6 97 97 SSE 6 9 29.72 1006 5 8.0467 0.08 2.032
6:03 am 06:03 Cloudy with Light Rain 52 11 52 11 100 100 SSE 6 9 29.71 1006 6 9.65604 0.01 0.254
6:41 am 06:41 Cloudy with Rain 52 11 52 11 100 100 Calm 29.71 1006 5 8.0467 0.04 1.016
6:56 am 06:56 Cloudy with Heavy Rain 52 11.1 51 10.6 97 97 Calm 29.71 1006 3 4.82802 0.09 2.286
7:06 am 07:06 Cloudy with Rain 52 11 52 11 100 100 Calm 29.71 1006 2.5 4.02335 0.06 1.524
7:18 am 07:18 Cloudy with Rain 52 11 52 11 100 100 Calm 29.68 1005 1.5 2.41401 0.08 2.032
7:42 am 07:42 Cloudy with Light Rain 52 11 52 11 100 100 ENE 3 6 29.68 1005 1 1.60934 0.1 2.54
7:56 am 07:56 Cloudy with Light Rain 51 10.6 51 10.6 100 100 Calm 29.7 1006 1 1.60934 0.11 2.794
8:00 am 08:00 Cloudy with Light Rain 52 11 52 11 100 100 Calm 29.68 1005 0.5 0.80467 0.001 0.001
8:56 am 08:56 Cloudy with Light Rain 51 10.6 50 10 96 96 Calm 29.7 1006 0.25 0.402335 0.01 0.254
9:56 am 09:56 Cloudy with Light Rain 52 11.1 52 11.1 100 100 SSW 3 6 29.69 1006 0.25 0.402335 0.01 0.254
10:44 am 10:44 Cloudy with Fog 54 12 54 12 100 100 W 5 7 29.65 1004 0.5 0.80467 0.001 0.001
10:54 am 10:54 Cloudy with Light Rain 54 12 54 12 100 100 WSW 7 11 29.68 1005 1 1.60934 0.001 0.001
10:56 am 10:56 Cloudy with Light Rain 54 12.2 54 12.2 100 100 W 7 11 29.67 1005 1.5 2.41401 0.001 0.001
10:58 am 10:58 Cloudy with Light Rain 54 12 54 12 100 100 W 8 13 29.68 1005 3 4.82802 0.001 0.001
11:56 am 11:56 Cloudy with Mist and Fog 52 11.1 52 11.1 100 100 NW 10 17 29.67 1005 2.5 4.02335 0.001 0.001
12:21 pm 12:21 Cloudy with Mist and Fog 52 11 52 11 100 100 NW 9 15 29.65 1004 6 9.65604 0 0
12:56 pm 12:56 Cloudy 51 10.6 51 10.6 100 100 WNW 10 17 29.65 1004 8 12.87472 0.001 0.001
1:30 pm 13:30 Cloudy with Light Rain 50 10 50 10 100 100 WNW 10 17 29.62 1003 2.5 4.02335 0.001 0.001
1:47 pm 13:47 Cloudy with Light Rain 50 10 48 9 94 94 W 6 9 29.62 1003 1 1.60934 0.001 0.001
1:49 pm 13:49 Cloudy with Light Rain 50 10 48 9 94 94 W 6 9 29.62 1003 0.5 0.80467 0.001 0.001
1:56 pm 13:56 Cloudy with Light Rain 49 9.4 49 9.4 100 100 W 7 11 29.63 1003 0.5 0.80467 0.001 0.001
2:19 pm 14:19 Cloudy with Mist and Fog 48 9 48 9 100 100 W 3 6 29.62 1003 1 1.60934 0.001 0.001
2:23 pm 14:23 Cloudy with Light Rain 48 9 48 9 100 100 NW 5 7 29.59 1002 2 3.21868 0.001 0.001
2:29 pm 14:29 Cloudy with Light Rain 48 9 48 9 100 100 NW 6 9 29.59 1002 1 1.60934 0.001 0.001
2:32 pm 14:32 Cloudy with Light Rain 48 9 48 9 100 100 NW 6 9 29.59 1002 0.5 0.80467 0.001 0.001
2:41 pm 14:41 Cloudy with Fog 48 9 48 9 100 100 W 10 17 29.62 1003 0.25 0.402335 0.001 0.001
2:52 pm 14:52 Cloudy with Fog 48 9 48 9 100 100 W 9 15 29.62 1003 0.5 0.80467 0.001 0.001
2:56 pm 14:56 Cloudy with Mist and Fog 49 9.4 49 9.4 100 100 W 9 15 29.62 1003 1 1.60934 0.001 0.001
2:59 pm 14:59 Cloudy with Mist and Fog 48 9 48 9 100 100 WNW 8 13 29.62 1003 2 3.21868 0 0
3:07 pm 15:07 Cloudy with Mist and Fog 48 9 48 9 100 100 NW 9 15 29.62 1003 4 6.43736 0 0
3:56 pm 15:56 Cloudy with Mist and Fog 48 8.9 47 8.3 96 96 NW 12 19 29.63 1003 5 8.0467 0.001 0.001
4:19 pm 16:19 Cloudy with Light Rain 46 8 46 8 100 100 NW 8 13 29.62 1003 1.75 2.816345 0.001 0.001
4:28 pm 16:28 Cloudy with Light Rain 46 8 46 8 100 100 NW 7 11 29.62 1003 0.75 1.207005 0.01 0.254
4:34 pm 16:34 Cloudy with Fog 46 8 46 8 100 100 WNW 6 9 29.62 1003 0.25 0.402335 0.01 0.254
4:54 pm 16:54 Cloudy with Light Rain 46 8 46 8 100 100 WNW 7 11 29.62 1003 0.5 0.80467 0.01 0.254
4:56 pm 16:56 Cloudy with Mist and Fog 47 8.3 47 8.3 100 100 WNW 7 11 29.63 1003 0.75 1.207005 0.01 0.254
5:07 pm 17:07 Cloudy with Light Rain 46 8 46 8 100 100 WNW 8 13 29.62 1003 0.5 0.80467 0.001 0.001
5:14 pm 17:14 Cloudy with Light Rain 46 8 46 8 100 100 W 8 13 29.62 1003 0.75 1.207005 0.001 0.001
5:24 pm 17:24 Cloudy with Heavy Rain 46 8 46 8 100 100 W 14 22 29.65 1004 1.25 2.011675 0.03 0.762
5:30 pm 17:30 Cloudy with Heavy Rain 46 8 46 8 100 100 W 15 24 29.68 1005 3 4.82802 0.06 1.524
5:56 pm 17:56 Cloudy with Rain 46 7.8 46 7.8 100 100 WNW 15 24 29.67 1005 10 16.0934 0.17 4.318
6:05 pm 18:05 Cloudy with Rain 46 8 45 7 93 93 NW 12 19 29.65 1004 10 16.0934 0.01 0.254
6:20 pm 18:20 Cloudy with Light Rain 46 8 45 7 93 93 NW 13 20 29.65 1004 10 16.0934 0.02 0.508
6:37 pm 18:37 Partly Cloudy 45 7 45 7 100 100 NNW 9 15 29.62 1003 10 16.0934 0.02 0.508
6:56 pm 18:56 Mostly Cloudy 45 7.2 43 6.1 93 93 NNW 7 11 29.64 1004 10 16.0934 0.02 0.508
7:33 pm 19:33 Cloudy 45 7 43 6 93 93 W 9 15 29.65 1004 10 16.0934 0 0
7:41 pm 19:41 Cloudy 45 7 45 7 100 100 W 8 13 29.65 1004 10 16.0934 0 0
7:56 pm 19:56 Cloudy 45 7.2 44 6.7 97 97 W 12 19 29.67 1005 10 16.0934 0 0
8:10 pm 20:10 Cloudy 45 7 45 7 100 100 WNW 13 20 29.68 1005 10 16.0934 0 0
8:56 pm 20:56 Cloudy 45 7.2 44 6.7 97 97 WNW 14 22 29.68 1005 10 16.0934 0 0
9:56 pm 21:56 Cloudy 43 6.1 42 5.6 97 97 WNW 15 24 29.69 1006 7 11.26538 0 0
11:56 pm 23:56 Cloudy with Light Rain 40 4.4 39 3.9 97 97 WNW 15 24 29.74 1007 3 4.82802 0.001 0.001

Powered by AerisWeather